Free Severe Weather Alerts by Email and Text Message   

 
Follow iAlert.com on twitter @ialertcom
Search For Active Alerts in Your Area  
  Hi Guest:  [ Sign-up / Services ] [ Login ]

Current weather by "City, St" or "zip code"  

 

Advertise Here

Hazardous Weather Conditions

No active alerts for DENVER, COLORADO

Current Conditions: DENVER, COLORADO

Light Snow


36.0 F

Last Updated on Apr 21 2018, 11:55 am MDT
Humidity: 100%
Wind Speed: NW 4.6 mph
Barometer 30.19 in
Dewpoint: 35.6 F
Visibility: 1.00 mi
Precip: --
Heat Index: NA
Wind Chill: 32 F
Current conditions at:

Broomfield / Jeffco, CO (KBJC)

Lat: 39.90 Lon: -105.10

Local Radar Image active severe weather and emergency alerts image image weather storm and storm spotter reports image weather observation monitoring service image
Local
Radar
Active
Alerts
Storm Reports Weather
Monitoring

Weather Alert Notification Services


ialert severe weather and emergency alerts by text message and email ialert daily weather forecast by email and text message service ialert real-time weather-observation monitoring and alert notification service ialert storm report monitoring alert notification

Observation History for DENVER, COLORADO


Time Wind
(mph)
Vis
(mi)
Weather Precip (in) Temperature (F) Relative
Humidity
Wind
Chill
(°F)
Heat
Index
(°F)
Pressure
Air Dwpt altimeter
(in)
sea level
(mb)
11:55 am MDT NW 4.6 1.00 Light Snow -- 36.0 35.6 100% 32 NA 30.19 M
10:55 am MDT N 5.8 0.75 Light Snow -- 34.0 33.8 100% 29 NA 30.19 M
9:45 am MDT N 9.2 0.75 Light Snow -- 34.0 33.8 100% 27 NA 30.18 M
8:45 am MDT N 0.0 1.00 Light Snow -- 32.0 32.0 100% NA NA 30.17 M
7:45 am MDT N 5.8 1.00 Light Snow -- 32.0 32.0 100% 26 NA 30.18 M
5:59 am MDT N 8.1 2.50 Light Snow -- 32.0 32.0 100% 25 NA 30.14 M
5:53 am MDT N 6.9 2.00 Light Snow -- 32.0 32.0 100% 26 NA 30.14 M
4:54 am MDT N 8.1 2.00 Light Snow -- 32.0 32.0 100% 25 NA 30.12 M
3:53 am MDT N 10.4 2.50 Light Snow -- 32.0 32.0 100% 24 NA 30.12 M
2:54 am MDT N 10.4 0.50 Fog -- 32.0 32.0 100% 24 NA 30.10 M
1:54 am MDT N 11.5 1.00 Fog/Mist -- 32.0 32.0 100% 23 NA 30.09 M
12:53 am MDT N 8.1 1.75 Light Snow -- 32.0 32.0 100% 25 NA 30.09 M
11:53 pm MDT NW 5.8 1.50 Light Snow -- 34.0 32.0 93% 29 NA 30.07 M
10:53 pm MDT SE 11.5 4.00 Snow -- 36.0 33.8 93% 28 NA 30.05 M
9:47 pm MDT E 13.8 7.00 Light Rain -- 41.0 35.6 81% 33 NA 30.03 M
8:45 pm MDT SE 13.8 G 19.6 10.00 Mostly Cloudy -- 41.0 35.6 81% 33 NA 30.00 M
7:45 pm MDT E 9.2 10.00 Mostly Cloudy -- 43.0 37.4 81% 38 NA 29.98 M
6:48 pm MDT SE 9.2 10.00 Mostly Cloudy -- 43.0 37.4 81% 38 NA 29.97 M
5:45 pm MDT NW 5.8 10.00 Mostly Cloudy -- 46.0 39.2 76% 43 NA 29.94 M
4:45 pm MDT W 13.8 7.00 Rain -- 45.0 37.4 76% 39 NA 29.94 M
3:47 pm MDT NW 10.4 15.00 Showers in Vicinity -- 48.0 30.2 50% 43 NA 29.90 M
2:45 pm MDT N 15.0 G 18.4 20.00 Overcast -- 52.0 28.4 41% 47 NA 29.89 M
1:45 pm MDT NW 12.7 G 19.6 20.00 Partly Cloudy -- 52.0 28.4 41% 48 NA 29.88 M
12:46 pm MDT NW 12.7 20.00 Mostly Cloudy -- 48.0 28.4 46% 43 NA 29.91 M

Regional Weather Observation:


Erie Municipal Airport, CO (KEIK)

Overcast
36.0 F

Boulder Municipal Airport, CO (KBDU)

Light Rain
36.0 F

Fort Collins/Loveland - Northern Colorado Regional Airport, CO (KFNL)

Light Rain
40.0 F

Buckley Air Force Base Airport, CO (KBKF)

Light Snow Fog/Mist
33.0 F

Denver, Denver International Airport, CO (KDEN)

Light Snow Fog/Mist
34.0 F

Denver - Centennial Airport, CO (KAPA)

Light Snow Fog/Mist
33.0 F

Advertise Here


Advertise Here